Location: ASU Dark Sky Observatory
(36.2504°N, 81.4125°W)
Time: 02:17:53
(UTC-04:00)

Amateur Radio Satellites - All Passes

Search period start: 25 July 2016 01:47
Search period end: 26 July 2016 01:47
Location: ASU Dark Sky Observatory, 36.2504°N, 81.4125°W

Satellite Date Start Highest point End Downlink Frequencies (MHz)
Time Altitude Azimuth
ITUPSAT 1 25 Jul 01:57:54 02:00:57 17° 65° (ENE) 02:03:59 437.325
Cosmos 2499 25 Jul 02:10:21 02:10:56 10° 60° (ENE) 02:11:30 435.465 / 435.565
Gurwin Techsat 1B 25 Jul 02:16:24 02:19:07 14° 92° (E) 02:21:48 435.225
NANOSAT C BR1 25 Jul 02:19:02 02:21:04 13° 294° (WNW) 02:23:06 145.865
DUCHIFAT 1 25 Jul 02:24:56 02:26:38 12° 295° (WNW) 02:28:21 145.980
TISAT 1 25 Jul 02:30:37 02:34:26 34° 262° (W) 02:38:17 437.305
JAS-2 25 Jul 02:39:57 02:44:52 41° 288° (WNW) 02:50:07 435.910
BUGSAT 1 25 Jul 02:50:01 02:52:17 14° 294° (WNW) 02:54:33 437.445
SWISSCUBE 25 Jul 02:50:30 02:55:15 69° 75° (ENE) 03:00:02 437.505
Oscar 19 25 Jul 02:54:46 02:59:57 83° 101° (ESE) 03:05:08 437.125/150
JUGNU 25 Jul 02:59:14 03:00:36 11° 167° (SSE) 03:01:58 437.505
AIST 1 25 Jul 02:59:58 03:01:43 12° 275° (W) 03:03:29
BEESAT 25 Jul 03:12:10 03:16:56 78° 256° (WSW) 03:21:45 436.000
GONETS M04 25 Jul 03:25:52 03:34:36 63° 80° (E) 03:43:19
ITUPSAT 1 25 Jul 03:33:46 03:38:22 46° 260° (W) 03:43:01 437.325
CUSAT 1 25 Jul 03:45:29 03:48:09 15° 95° (E) 03:50:29 437.405
Gurwin Techsat 1B 25 Jul 03:54:11 03:59:26 62° 286° (WNW) 04:04:39 435.225
BEESAT 3 25 Jul 03:57:10 03:59:37 16° 49° (NE) 04:02:03 437.485
Cosmos 2499 25 Jul 03:57:51 04:05:44 71° 81° (E) 04:12:59 435.465 / 435.565
KKS-1 25 Jul 04:00:41 04:04:44 36° 71° (ENE) 04:08:48 437.445
ISS 25 Jul 04:09:02 04:10:09 11° 22° (NNE) 04:11:17 145.825
MOZHAYETS 4 25 Jul 04:15:59 04:20:31 56° 74° (ENE) 04:25:04
ITAMSAT 1 25 Jul 04:23:26 04:28:39 82° 103° (ESE) 04:33:50 435.822/435.867
SWISSCUBE 25 Jul 04:32:45 04:33:27 10° 269° (W) 04:34:09 437.505
Oscar 19 25 Jul 04:37:09 04:38:32 11° 299° (WNW) 04:39:55 437.125/150
JUGNU 25 Jul 04:45:27 04:48:49 15° 177° (S) 04:52:10 437.505
STARS 25 Jul 04:46:04 04:50:20 57° 75° (ENE) 04:54:41 437.465
AO-7 25 Jul 05:02:21 05:10:40 65° 105° (ESE) 05:18:53 29.400- 29.500
SRMSAT 25 Jul 05:11:39 05:12:28 10° 167° (SSE) 05:13:17 437.500
HORYU 2 25 Jul 05:19:44 05:22:08 14° 93° (E) 05:24:30 437.375
DANDE 25 Jul 05:22:30 05:28:54 79° 96° (E) 05:33:39 436.750
GONETS M04 25 Jul 05:24:01 05:30:39 25° 278° (W) 05:37:18
CUSAT 1 25 Jul 05:25:58 05:30:03 30° 280° (W) 05:33:19 437.405
CUBESAT XI-V 25 Jul 05:28:48 05:33:05 38° 72° (ENE) 05:37:21 437.345
PCSat 25 Jul 05:32:21 05:37:30 42° 58° (ENE) 05:42:35 145.827
BEESAT 3 25 Jul 05:33:44 05:37:29 42° 245° (WSW) 05:41:13 437.485
BEESAT 2 25 Jul 05:34:34 05:38:34 87° 241° (WSW) 05:42:33 435.950
KKS-1 25 Jul 05:38:25 05:41:23 17° 266° (W) 05:44:21 437.445
ISS 25 Jul 05:43:53 05:47:08 65° 41° (NE) 05:50:21 145.825
Cosmos 2499 25 Jul 05:53:02 05:57:47 18° 280° (W) 06:02:22 435.465 / 435.565
MOZHAYETS 4 25 Jul 05:56:11 05:57:59 12° 269° (W) 05:59:46
ITAMSAT 1 25 Jul 06:05:50 06:07:23 11° 299° (WNW) 06:08:56 435.822/435.867
NOAA 15 25 Jul 06:14:38 06:16:46 12° 91° (E) 06:18:54 137.62
BRITE-PL 25 Jul 06:24:37 06:28:19 21° 95° (E) 06:32:13 437.365/2234.400
STARS 25 Jul 06:26:04 06:27:01 11° 268° (W) 06:27:59 437.465
RS-15 25 Jul 06:32:23 06:41:43 31° 103° (ESE) 06:51:23 29.354- 29.394
JUGNU 25 Jul 06:34:07 06:37:01 14° 188° (S) 06:39:55 437.505
LilacSat-2 25 Jul 06:40:14 06:42:00 13° 92° (E) 06:43:44 437.200
HORYU 2 25 Jul 06:54:36 06:58:53 45° 287° (WNW) 07:03:07 437.375
AO-7 25 Jul 06:56:10 07:02:45 27° 302° (WNW) 07:09:19 29.400- 29.500
SRMSAT 25 Jul 06:57:31 07:00:49 15° 177° (S) 07:04:07 437.500
Cubesat XI-IV 25 Jul 06:59:42 07:04:13 27° 96° (E) 07:08:41 437.490
CUBESAT XI-V 25 Jul 07:07:29 07:10:34 18° 267° (W) 07:13:40 437.345
DANDE 25 Jul 07:11:01 07:11:35 10° 286° (WNW) 07:12:08 436.750
AIST 2 25 Jul 07:14:34 07:18:38 49° 57° (ENE) 07:22:40 435.215
PCSat 25 Jul 07:16:22 07:20:35 23° 253° (WSW) 07:24:46 145.827
O/OREOS (USA 219) 25 Jul 07:16:50 07:20:54 32° 64° (ENE) 07:24:59 437.305
CUTE-I 25 Jul 07:23:41 07:28:50 47° 99° (E) 07:33:56 437.470
STRAND 1 25 Jul 07:36:12 07:41:11 54° 73° (ENE) 07:46:13 437.568
GOMX 1 25 Jul 07:38:27 07:43:26 58° 100° (E) 07:48:41 467.674
NOAA 18 25 Jul 07:39:15 07:44:47 66° 102° (ESE) 07:50:15 137.9125
DOVE 4 25 Jul 07:44:06 07:48:37 31° 96° (E) 07:53:15 437.250
NOAA 15 25 Jul 07:51:44 07:56:58 68° 286° (WNW) 08:02:11 137.62
BRITE-PL 25 Jul 08:02:24 08:06:48 37° 287° (WNW) 08:11:30 437.365/2234.400
LilacSat-2 25 Jul 08:12:50 08:16:25 36° 287° (WNW) 08:19:57 437.200
CINEMA 3 25 Jul 08:14:13 08:17:32 17° 92° (E) 08:20:48 145.822/145.860
CANX-2 25 Jul 08:35:24 08:38:44 22° 95° (E) 08:42:02 2200.000
Cubesat XI-IV 25 Jul 08:39:30 08:44:15 33° 291° (WNW) 08:48:57 437.490
RS-15 25 Jul 08:41:44 08:53:06 69° 303° (WNW) 09:05:10 29.354- 29.394
SRMSAT 25 Jul 08:46:12 08:49:11 14° 187° (S) 08:52:10 437.500
CUTE 1.7 + AOD 2 25 Jul 08:49:03 08:52:41 28° 96° (E) 08:56:18 437.475
Cosmos 2491 25 Jul 08:54:15 09:02:00 34° 73° (ENE) 09:09:42 435.465 / 435.565
AIST 2 25 Jul 08:54:48 08:56:39 13° 252° (WSW) 08:58:32 435.215
O/OREOS (USA 219) 25 Jul 08:56:43 09:00:03 20° 259° (W) 09:03:24 437.305
SO-50 25 Jul 08:57:02 09:01:45 51° 116° (ESE) 09:06:28 436.795
HO-68 25 Jul 09:01:51 09:08:46 47° 100° (E) 09:15:36 435.675
CUTE-I 25 Jul 09:04:43 09:08:29 20° 295° (WNW) 09:12:14 437.470
STRAND 1 25 Jul 09:17:39 09:20:38 15° 267° (W) 09:23:38 437.568
GOMX 1 25 Jul 09:18:07 09:21:04 16° 293° (WNW) 09:24:07 467.674
UWE-3 25 Jul 09:20:21 09:23:05 15° 92° (E) 09:25:46 435.000/436.395/437.385
NOAA 18 25 Jul 09:21:38 09:24:49 16° 298° (WNW) 09:28:00 137.9125
DOVE 4 25 Jul 09:21:48 09:26:10 29° 290° (WNW) 09:30:39 437.250
PRISM 25 Jul 09:26:46 09:30:50 75° 258° (WSW) 09:34:55 437.425
ZACube-1 25 Jul 09:27:35 09:28:45 11° 90° (E) 09:29:55 437.345
FUNcube-1 25 Jul 09:28:48 09:29:05 10° 90° (E) 09:29:22 145.935
SEEDS 25 Jul 09:32:08 09:36:17 66° 101° (ESE) 09:40:24 437.485
CUBEBUG 2 25 Jul 09:36:15 09:40:36 36° 97° (E) 09:44:50 437.445
TIGRISAT 25 Jul 09:40:02 09:40:26 10° 63° (ENE) 09:40:49 435.000
COMPASS 1 25 Jul 09:48:16 09:52:24 71° 101° (ESE) 09:56:30 437.405
CINEMA 3 25 Jul 09:50:02 09:54:51 47° 287° (WNW) 09:59:36 145.822/145.860
UNISAT 6 25 Jul 09:53:03 09:55:49 16° 66° (ENE) 09:58:37 437.425
CANX-2 25 Jul 10:11:02 10:14:30 25° 290° (WNW) 10:17:56 2200.000
Oscar 11 25 Jul 10:11:08 10:15:09 36° 98° (E) 10:19:07 145.826/435.025
AAUSAT CUBESAT 2 25 Jul 10:18:58 10:23:01 61° 284° (WNW) 10:27:04 437.432
YUBILEINY 25 Jul 10:19:34 10:28:02 56° 90° (E) 10:36:33 435.215
CUTE 1.7 + AOD 2 25 Jul 10:25:13 10:28:20 20° 291° (WNW) 10:31:26 437.475
M-CUBED/EXP-1 PRIME 25 Jul 10:28:12 10:31:26 18° 98° (E) 10:34:39 437.505
ANTELSAT 25 Jul 10:29:51 10:34:06 39° 72° (ENE) 10:38:27 437.575/2403.000
SO-50 25 Jul 10:38:58 10:42:31 20° 312° (NW) 10:46:02 436.795
HO-68 25 Jul 10:50:04 10:56:08 31° 296° (WNW) 11:02:11 435.675
Cosmos 2491 25 Jul 10:50:43 10:58:57 48° 271° (W) 11:07:12 435.465 / 435.565
UWE-3 25 Jul 10:55:21 10:59:43 43° 287° (WNW) 11:03:59 435.000/436.395/437.385
AUBIESAT-1 25 Jul 10:55:37 10:59:41 29° 101° (E) 11:03:41 437.475
RS-15 25 Jul 10:59:40 11:08:25 23° 331° (NNW) 11:17:29 29.354- 29.394
HUMSAT D 25 Jul 10:59:48 11:03:17 25° 96° (E) 11:06:44 437.325/437.525
DELFI C3 25 Jul 11:00:38 11:04:32 60° 100° (E) 11:08:24 145.870
ZACube-1 25 Jul 11:00:57 11:05:23 57° 285° (WNW) 11:09:42 437.345
FUNcube-1 25 Jul 11:01:16 11:05:43 61° 285° (WNW) 11:10:02 145.935
TIGRISAT 25 Jul 11:11:50 11:16:24 76° 259° (WSW) 11:21:06 435.000
CUBEBUG 2 25 Jul 11:13:29 11:16:55 20° 293° (WNW) 11:20:18 437.445
UNISAT 6 25 Jul 11:27:41 11:32:05 46° 261° (W) 11:36:36 437.425
Cosmos 2504 25 Jul 11:30:50 11:39:19 55° 90° (E) 11:47:53 435.465 / 435.565
NANOSAT C BR1 25 Jul 11:31:32 11:34:59 25° 70° (ENE) 11:38:28 145.865
DUCHIFAT 1 25 Jul 11:36:49 11:40:21 27° 70° (ENE) 11:43:55 145.980
Oscar 11 25 Jul 11:48:12 11:50:57 17° 293° (WNW) 11:53:42 145.826/435.025
QB50P1 25 Jul 11:51:57 11:56:00 46° 74° (ENE) 12:00:04 145.935-145.965
POPSAT HIP 1 25 Jul 11:58:06 12:02:13 54° 74° (ENE) 12:06:23 437.405
BUGSAT 1 25 Jul 12:01:03 12:04:08 21° 69° (ENE) 12:07:15 437.445
M-CUBED/EXP-1 PRIME 25 Jul 12:01:36 12:06:01 43° 292° (WNW) 12:10:28 437.505
ANTELSAT 25 Jul 12:07:49 12:10:56 18° 267° (W) 12:14:06 437.575/2403.000
AISAT 25 Jul 12:11:46 12:14:32 16° 94° (E) 12:17:16 437.250
YUBILEINY 25 Jul 12:17:51 12:25:11 29° 289° (WNW) 12:32:36 435.215
QB50P2 25 Jul 12:18:21 12:22:34 78° 258° (WSW) 12:26:52 145.880/145.840
DX 1 25 Jul 12:19:56 12:21:53 13° 93° (E) 12:23:51 434.975-435.025
POLYITAN 1 25 Jul 12:20:59 12:25:12 76° 257° (WSW) 12:29:31 437.675
AUBIESAT-1 25 Jul 12:30:06 12:33:57 27° 295° (WNW) 12:37:49 437.475
HUMSAT D 25 Jul 12:35:30 12:38:46 22° 291° (WNW) 12:41:59 437.325/437.525
ESTCUBE 1 25 Jul 12:36:19 12:40:43 53° 100° (E) 12:45:06 437.505/2401.250
UKube-1 25 Jul 12:37:08 12:39:48 16° 94° (E) 12:42:27 .
JAS-2 25 Jul 12:48:43 12:54:53 60° 74° (ENE) 13:00:24 435.910
50 SAT 25 Jul 12:58:34 13:02:07 58° 100° (E) 13:05:38 437.505
VELOX 1 25 Jul 13:02:10 13:06:34 58° 101° (E) 13:10:56 145.980
NANOSAT C BR1 25 Jul 13:07:16 13:10:37 23° 264° (W) 13:14:01 145.865
CUBEBUG 1 25 Jul 13:09:03 13:13:28 84° 105° (ESE) 13:17:52 437.445
DUCHIFAT 1 25 Jul 13:12:46 13:16:00 21° 265° (W) 13:19:15 145.980
SPROUT 25 Jul 13:13:37 13:17:35 35° 98° (E) 13:21:32 437.525
RS-15 25 Jul 13:21:02 13:27:45 16° 9° (N) 13:34:31 29.354- 29.394
Cosmos 2504 25 Jul 13:25:27 13:33:00 31° 288° (WNW) 13:40:38 435.465 / 435.565
QB50P1 25 Jul 13:30:12 13:31:59 12° 268° (W) 13:33:48 145.935-145.965
Gurwin Techsat 1B 25 Jul 13:34:45 13:38:21 19° 65° (ENE) 13:41:56 435.225
BUGSAT 1 25 Jul 13:35:57 13:39:21 25° 264° (W) 13:42:47 437.445
POPSAT HIP 1 25 Jul 13:37:27 13:38:17 10° 269° (W) 13:39:08 437.405
AISAT 25 Jul 13:46:58 13:51:07 40° 288° (WNW) 13:55:17 437.250
AIST 1 25 Jul 13:47:15 13:50:56 29° 90° (E) 13:54:38
DX 1 25 Jul 13:54:06 13:58:18 48° 287° (WNW) 14:02:31 434.975-435.025
ITAMSAT 1 25 Jul 14:03:59 14:05:11 11° 61° (ENE) 14:06:23 435.822/435.867
Oscar 19 25 Jul 14:08:56 14:14:03 89° 269° (W) 14:19:12 437.125/150
AO-7 25 Jul 14:11:12 14:15:02 14° 50° (NE) 14:18:53 29.400- 29.500
UKube-1 25 Jul 14:11:57 14:15:57 38° 288° (WNW) 14:19:56 .
ESTCUBE 1 25 Jul 14:14:58 14:17:03 13° 295° (WNW) 14:19:07 437.505/2401.250
TISAT 1 25 Jul 14:16:43 14:20:45 41° 99° (E) 14:24:46 437.305
AO-85 25 Jul 14:31:00 14:36:13 49° 115° (ESE) 14:41:16 145.980
GONETS M04 25 Jul 14:33:37 14:36:33 12° 76° (ENE) 14:39:29
JAS-2 25 Jul 14:36:16 14:40:09 17° 265° (W) 14:43:48 435.910
VELOX 1 25 Jul 14:40:50 14:42:30 12° 296° (WNW) 14:44:09 145.980
SPROUT 25 Jul 14:50:21 14:53:14 18° 292° (WNW) 14:56:07 437.525
SWISSCUBE 25 Jul 14:54:09 14:57:45 21° 95° (E) 15:01:19 437.505
Gurwin Techsat 1B 25 Jul 15:12:43 15:17:51 50° 260° (W) 15:23:02 435.225
BEESAT 25 Jul 15:15:14 15:19:30 32° 98° (E) 15:23:43 436.000
AIST 1 25 Jul 15:25:38 15:28:33 18° 286° (WNW) 15:31:28
RS-15 25 Jul 15:34:42 15:45:44 36° 42° (NE) 15:56:37 29.354- 29.394
ITUPSAT 1 25 Jul 15:36:40 15:41:22 54° 101° (E) 15:46:00 437.325
ITAMSAT 1 25 Jul 15:38:38 15:43:52 86° 256° (WSW) 15:49:08 435.822/435.867
TISAT 1 25 Jul 15:53:35 15:56:01 15° 294° (WNW) 15:58:27 437.305
AO-7 25 Jul 15:58:01 16:06:18 70° 69° (ENE) 16:14:37 29.400- 29.500
CUSAT 1 25 Jul 15:59:59 16:02:58 67° 263° (W) 16:06:40 437.405
DANDE 25 Jul 16:04:45 16:06:55 23° 79° (ENE) 16:09:14 436.750
AO-85 25 Jul 16:12:40 16:16:54 23° 310° (NW) 16:21:02 145.980
MOZHAYETS 4 25 Jul 16:14:55 16:17:43 16° 93° (E) 16:20:31
HORYU 2 25 Jul 16:17:12 16:17:58 10° 63° (ENE) 16:18:43 437.375
GONETS M04 25 Jul 16:23:10 16:31:49 79° 94° (E) 16:40:32
Cosmos 2499 25 Jul 16:28:52 16:37:35 65° 92° (E) 16:46:13 435.465 / 435.565
SWISSCUBE 25 Jul 16:31:17 16:35:34 34° 290° (WNW) 16:39:49 437.505
STARS 25 Jul 16:39:53 16:41:53 13° 92° (E) 16:43:54 437.465
BEESAT 25 Jul 16:53:21 16:57:05 23° 292° (WNW) 17:00:47 436.000
ITUPSAT 1 25 Jul 17:16:08 17:18:41 15° 296° (WNW) 17:21:14 437.325
NOAA 18 25 Jul 17:26:32 17:28:34 12° 60° (ENE) 17:30:34 137.9125
CUBESAT XI-V 25 Jul 17:30:04 17:31:35 11° 91° (E) 17:33:06 437.345
KKS-1 25 Jul 17:30:05 17:34:35 76° 284° (WNW) 17:39:03 437.445
SO-50 25 Jul 17:31:37 17:35:19 23° 50° (NE) 17:38:55 436.795
NOAA 15 25 Jul 17:31:50 17:35:07 17° 64° (ENE) 17:38:23 137.62
PHONESAT 2.4 25 Jul 17:32:51 17:35:19 22° 148° (SSE) 17:37:48 2401.200-2431.200
BRITE-PL 25 Jul 17:34:48 17:37:09 15° 67° (ENE) 17:39:30 437.365/2234.400
RS-15 25 Jul 17:47:02 17:59:22 75° 245° (WSW) 18:11:24 29.354- 29.394
HORYU 2 25 Jul 17:49:26 17:53:53 69° 258° (WSW) 17:58:23 437.375
MOZHAYETS 4 25 Jul 17:50:45 17:55:03 41° 287° (WNW) 17:59:19
AO-7 25 Jul 17:53:25 17:59:35 23° 265° (W) 18:05:50 29.400- 29.500
STARS 25 Jul 18:14:11 18:18:29 49° 287° (WNW) 18:22:46 437.465
Cubesat XI-IV 25 Jul 18:18:59 18:23:49 35° 69° (ENE) 18:28:41 437.490
GONETS M04 25 Jul 18:23:44 18:29:33 19° 293° (WNW) 18:35:28
Cosmos 2499 25 Jul 18:24:08 18:31:13 26° 289° (WNW) 18:38:16 435.465 / 435.565
CUTE-I 25 Jul 18:42:44 18:48:01 61° 73° (ENE) 18:53:19 437.470
GOMX 1 25 Jul 18:44:54 18:48:45 39° 73° (ENE) 18:52:44 467.674
DOVE 4 25 Jul 18:48:16 18:51:15 19° 67° (ENE) 18:54:21 437.250
LilacSat-2 25 Jul 18:51:32 18:55:22 70° 76° (ENE) 18:59:15 437.200
NOAA 18 25 Jul 19:02:53 19:08:24 86° 256° (WSW) 19:13:59 137.9125
CUBESAT XI-V 25 Jul 19:04:45 19:09:17 58° 286° (WNW) 19:13:48 437.345
PHONESAT 2.4 25 Jul 19:08:34 19:11:39 68° 343° (NNW) 19:14:43 2401.200-2431.200
NOAA 15 25 Jul 19:09:17 19:14:24 55° 259° (W) 19:19:33 137.62
BRITE-PL 25 Jul 19:11:29 19:15:21 36° 262° (W) 19:19:12 437.365/2234.400
SO-50 25 Jul 19:11:41 19:15:52 35° 246° (WSW) 19:19:55 436.795
CINEMA 3 25 Jul 19:15:29 19:16:33 11° 63° (ENE) 19:17:38 145.822/145.860
BEESAT 3 25 Jul 19:21:24 19:25:13 56° 117° (ESE) 19:29:06 437.485
BEESAT 2 25 Jul 19:24:15 19:27:41 29° 113° (ESE) 19:31:10 435.950
CANX-2 25 Jul 19:27:08 19:28:58 13° 66° (ENE) 19:30:48 2200.000
HO-68 25 Jul 19:28:24 19:34:13 28° 63° (ENE) 19:40:04 435.675
CUTE 1.7 + AOD 2 25 Jul 19:40:09 19:42:41 16° 67° (ENE) 19:45:13 437.475
STRAND 1 25 Jul 19:50:05 19:54:03 22° 95° (E) 19:57:59 437.568
Cubesat XI-IV 25 Jul 19:59:29 20:03:54 26° 264° (W) 20:08:20 437.490
RS-15 25 Jul 20:03:49 20:09:37 15° 264° (W) 20:15:24 29.354- 29.394
PCSat 25 Jul 20:10:57 20:16:17 66° 114° (ESE) 20:21:41 145.827
SEEDS 25 Jul 20:21:16 20:25:01 32° 72° (ENE) 20:28:47 437.485
DOVE 4 25 Jul 20:24:58 20:28:42 31° 264° (W) 20:32:37 437.250
GOMX 1 25 Jul 20:25:05 20:27:05 13° 268° (W) 20:29:07 467.674
CUTE-I 25 Jul 20:25:31 20:28:25 15° 268° (W) 20:31:20 437.470
CUBEBUG 2 25 Jul 20:31:59 20:35:32 23° 68° (ENE) 20:39:08 437.445
YUBILEINY 25 Jul 20:33:56 20:40:41 24° 69° (ENE) 20:47:22 435.215
COMPASS 1 25 Jul 20:36:25 20:40:10 32° 72° (ENE) 20:43:54 437.405
PHONESAT 2.4 25 Jul 20:45:32 20:48:25 34° 359° (N) 20:51:17 2401.200-2431.200
CINEMA 3 25 Jul 20:48:36 20:52:59 68° 259° (W) 20:57:38 145.822/145.860
CANX-2 25 Jul 21:00:12 21:04:21 50° 260° (W) 21:08:32 2200.000
BEESAT 3 25 Jul 21:01:31 21:03:15 12° 313° (NW) 21:04:59 437.485
BEESAT 2 25 Jul 21:02:30 21:05:31 21° 309° (NW) 21:08:34 435.950
Oscar 11 25 Jul 21:03:47 21:07:04 21° 69° (ENE) 21:10:22 145.826/435.025
AAUSAT CUBESAT 2 25 Jul 21:06:07 21:10:12 58° 76° (ENE) 21:14:18 437.432
AIST 2 25 Jul 21:10:36 21:13:29 19° 110° (ESE) 21:16:25 435.215
PRISM 25 Jul 21:11:50 21:14:34 17° 95° (E) 21:17:18 437.425
M-CUBED/EXP-1 PRIME 25 Jul 21:13:50 21:15:18 12° 59° (ENE) 21:16:49 437.505
CUTE 1.7 + AOD 2 25 Jul 21:14:10 21:18:10 39° 262° (W) 21:22:12 437.475
HO-68 25 Jul 21:14:33 21:21:30 53° 259° (W) 21:28:32 435.675
O/OREOS (USA 219) 25 Jul 21:26:05 21:30:29 62° 107° (ESE) 21:34:54 437.305
STRAND 1 25 Jul 21:28:37 21:33:16 37° 290° (WNW) 21:37:55 437.568
Cosmos 2504 25 Jul 21:29:49 21:34:06 15° 64° (ENE) 21:38:14 435.465 / 435.565
AUBIESAT-1 25 Jul 21:39:57 21:42:44 20° 63° (ENE) 21:45:41 437.475
DELFI C3 25 Jul 21:44:20 21:47:33 24° 71° (ENE) 21:50:45 145.870
UWE-3 25 Jul 21:48:47 21:53:18 76° 258° (WSW) 21:57:58 435.000/436.395/437.385
HUMSAT D 25 Jul 21:49:36 21:51:51 14° 67° (ENE) 21:54:07 437.325/437.525
Cosmos 2491 25 Jul 21:52:02 22:00:01 42° 88° (E) 22:07:59 435.465 / 435.565
ZACube-1 25 Jul 21:53:19 21:57:48 78° 77° (ENE) 22:02:24 437.345
FUNcube-1 25 Jul 21:53:23 21:57:50 73° 77° (ENE) 22:02:25 145.935
PCSat 25 Jul 21:56:35 22:00:10 18° 311° (NW) 22:03:45 145.827
SEEDS 25 Jul 21:57:50 22:00:45 18° 266° (W) 22:03:40 437.485
CUBEBUG 2 25 Jul 22:07:55 22:11:55 31° 264° (W) 22:16:03 437.445
COMPASS 1 25 Jul 22:12:59 22:15:45 17° 266° (W) 22:18:32 437.405
ISS 25 Jul 22:21:12 22:24:26 88° 151° (SSE) 22:27:43 145.825
PHONESAT 2.4 25 Jul 22:22:10 22:25:13 57° 16° (NNE) 22:28:15 2401.200-2431.200
YUBILEINY 25 Jul 22:29:24 22:38:10 68° 267° (W) 22:46:50 435.215
Oscar 11 25 Jul 22:39:14 22:43:00 29° 263° (W) 22:46:49 145.826/435.025
M-CUBED/EXP-1 PRIME 25 Jul 22:45:51 22:49:19 45° 256° (WSW) 22:53:06 437.505
PRISM 25 Jul 22:46:17 22:49:54 31° 289° (WNW) 22:53:32 437.425
AIST 2 25 Jul 22:48:01 22:51:43 33° 306° (NW) 22:55:29 435.215
TIGRISAT 25 Jul 23:06:35 23:10:34 28° 96° (E) 23:14:27 435.000
AO-85 25 Jul 23:06:43 23:09:49 19° 47° (NE) 23:12:45 145.980
O/OREOS (USA 219) 25 Jul 23:08:36 23:10:17 12° 304° (NW) 23:11:59 437.305
AISAT 25 Jul 23:08:38 23:09:39 11° 64° (ENE) 23:10:41 437.250
AUBIESAT-1 25 Jul 23:13:57 23:17:01 25° 260° (W) 23:20:20 437.475
DELFI C3 25 Jul 23:19:15 23:22:19 21° 265° (W) 23:25:22 145.870
Cosmos 2504 25 Jul 23:20:33 23:28:45 90° 265° (W) 23:36:18 435.465 / 435.565
UNISAT 6 25 Jul 23:22:02 23:26:29 44° 99° (E) 23:30:49 437.425
HUMSAT D 25 Jul 23:22:56 23:27:03 45° 261° (W) 23:31:12 437.325/437.525
UKube-1 25 Jul 23:31:38 23:32:05 10° 64° (ENE) 23:32:32 .
ESTCUBE 1 25 Jul 23:33:18 23:37:23 35° 72° (ENE) 23:41:27 437.505/2401.250
50 SAT 25 Jul 23:34:25 23:36:56 18° 69° (ENE) 23:39:26 437.505
POPSAT HIP 1 25 Jul 23:48:07 23:49:09 11° 91° (E) 23:50:11 437.405
Cosmos 2491 25 Jul 23:48:55 23:56:48 38° 285° (WNW) 00:04:45 435.465 / 435.565
VELOX 1 25 Jul 23:56:57 00:00:57 36° 72° (ENE) 00:04:58 145.980
PHONESAT 2.4 25 Jul 23:58:54 00:01:36 28° 211° (SSW) 00:04:18 2401.200-2431.200
ISS 25 Jul 23:59:33 00:01:17 13° 335° (NNW) 00:02:59 145.825
ANTELSAT 26 Jul 00:00:29 00:05:06 67° 285° (WNW) 00:09:35 437.575/2403.000
CUBEBUG 1 26 Jul 00:02:19 00:06:26 48° 74° (ENE) 00:10:35 437.445
SPROUT 26 Jul 00:05:16 00:08:21 20° 68° (ENE) 00:11:27 437.525
QB50P2 26 Jul 00:06:40 00:09:53 20° 95° (E) 00:13:05 145.880/145.840
POLYITAN 1 26 Jul 00:09:17 00:12:33 21° 95° (E) 00:15:47 437.675
AISAT 26 Jul 00:41:13 00:45:33 63° 259° (WSW) 00:49:55 437.250
TIGRISAT 26 Jul 00:43:21 00:47:06 25° 291° (WNW) 00:50:47 435.000
AO-85 26 Jul 00:46:29 00:50:26 37° 247° (WSW) 00:54:06 145.980
DX 1 26 Jul 00:46:32 00:50:51 80° 257° (WSW) 00:55:12 434.975-435.025
NANOSAT C BR1 26 Jul 00:53:10 00:57:26 66° 102° (ESE) 01:01:39 145.865
DUCHIFAT 1 26 Jul 00:58:14 01:02:30 71° 102° (ESE) 01:06:44 145.980
UNISAT 6 26 Jul 00:59:56 01:02:46 16° 294° (WNW) 01:05:33 437.425
UKube-1 26 Jul 01:03:17 01:07:33 64° 259° (WSW) 01:11:50 .
TISAT 1 26 Jul 01:06:18 01:09:32 22° 69° (ENE) 01:12:47 437.305
50 SAT 26 Jul 01:07:20 01:10:21 24° 263° (W) 01:13:24 437.505
ESTCUBE 1 26 Jul 01:11:07 01:14:14 18° 266° (W) 01:17:22 437.505/2401.250
QB50P1 26 Jul 01:14:40 01:18:56 63° 284° (WNW) 01:23:08 145.935-145.965
Cosmos 2504 26 Jul 01:17:12 01:20:42 13° 283° (WNW) 01:24:06 435.465 / 435.565
BUGSAT 1 26 Jul 01:19:24 01:23:34 52° 100° (E) 01:27:43 437.445
POPSAT HIP 1 26 Jul 01:21:01 01:25:13 54° 286° (WNW) 01:29:23 437.405
AIST 1 26 Jul 01:33:29 01:37:50 82° 83° (E) 01:42:12
VELOX 1 26 Jul 01:34:40 01:37:31 17° 266° (W) 01:40:22 145.980
SPROUT 26 Jul 01:40:19 01:44:04 30° 263° (W) 01:47:52 437.525
CUBEBUG 1 26 Jul 01:41:11 01:42:57 12° 268° (W) 01:44:44 437.445
